DeKalb, IL

2:33 AM CDT on September 24, 2017 (GMT -0500)
De Kalb Taylor Municipal

Weather History for KDKB - July, 2013

Change the Weather History Date:

Sunday, July 7, 2013

  Actual Average (KARR) Record (KARR)
Temperature  
Mean Temperature 78 °F -  
Max Temperature 87 °F 80 °F 102 °F (2012)
Min Temperature 68 °F 59 °F 49 °F (2006)
Cooling Degree Days 12    
Growing Degree Days 28 (Base 50)    
Moisture  
Dew Point 70 °F    
Average Humidity 79    
Maximum Humidity 90    
Minimum Humidity 53    
Precipitation  
Precipitation 0.00 in - - ()
Sea Level Pressure  
Sea Level Pressure 30.01 in    
Wind  
Wind Speed 7 mph (South)    
Max Wind Speed 13 mph    
Max Gust Speed 17 mph    
Visibility 8 miles    
Events      
Averages and records for this station are not official NWS values.
T = Trace of Precipitation, MM = Missing Value Source: NWS Daily Summary

Daily Weather History Graph

Daily Weather History Graph

Search for Another Location

Airport or City:

Trip Planner

Search our weather history database for the weather conditions in past years. The results will help you decide how hot, cold, wet, or windy it might be!

Date:

Astronomy

Jul. 07, 2013 Rise Set
Actual Time 5:26 AM CDT 8:32 PM CDT
Civil Twilight 4:53 AM CDT 9:06 PM CDT
Nautical Twilight 4:09 AM CDT 9:49 PM CDT
Astronomical Twilight 3:18 AM CDT 10:40 PM CDT
Moon 5:03 AM CDT (7/7) 7:54 PM CDT (7/7)
Length of Visible Light 16h 13m
Length of Day
15h 05m
Waning Crescent, 0% of the Moon is Illuminated
Jul 7
Waning Crescent
Jul 8
New
Jul 15
First Quarter
Jul 22
Full
Jul 29
Last Quarter

Hourly Weather History & Observations

Time (CDT) Temp. Heat Index Dew Point Humidity Pressure Visibility Wind Dir Wind Speed Gust Speed Precip Events Conditions
12:15 AM 71.2 °F - 68.0 °F 89% 30.03 in 7.0 mi SE 4.6 mph - N/A   Clear
12:35 AM 71.2 °F - 68.0 °F 89% 30.03 in 7.0 mi SSE 8.1 mph - N/A   Clear
12:55 AM 71.2 °F - 68.0 °F 89% 30.02 in 7.0 mi SE 6.9 mph - N/A   Clear
1:15 AM 70.7 °F - 67.3 °F 89% 30.02 in 5.0 mi SSE 5.8 mph - N/A   Clear
1:35 AM 70.7 °F - 67.3 °F 89% 30.02 in 5.0 mi SSE 6.9 mph - N/A   Clear
1:55 AM 70.7 °F - 67.3 °F 89% 30.01 in 4.0 mi South 8.1 mph - N/A   Clear
2:15 AM 70.3 °F - 67.1 °F 89% 30.01 in 4.0 mi South 9.2 mph - N/A   Clear
2:35 AM 70.0 °F - 66.7 °F 89% 30.01 in 5.0 mi South 6.9 mph - N/A   Clear
2:55 AM 69.8 °F - 66.6 °F 89% 30.01 in 5.0 mi South 5.8 mph - N/A   Clear
3:15 AM 69.3 °F - 66.2 °F 90% 30.01 in 4.0 mi South 5.8 mph - N/A   Clear
3:35 AM 68.9 °F - 65.8 °F 90% 30.01 in 5.0 mi SSW 4.6 mph - N/A   Clear
3:55 AM 68.9 °F - 65.7 °F 89% 30.01 in 5.0 mi South 5.8 mph - N/A   Clear
4:15 AM 68.4 °F - 65.3 °F 90% 30.00 in 5.0 mi SSW 4.6 mph - N/A   Clear
4:35 AM 68.4 °F - 65.3 °F 90% 30.01 in 5.0 mi South 5.8 mph - N/A   Clear
4:55 AM 68.4 °F - 65.3 °F 90% 30.01 in 5.0 mi South 5.8 mph - N/A   Clear
5:15 AM 68.2 °F - 65.3 °F 90% 30.01 in 7.0 mi South 5.8 mph - N/A   Clear
5:35 AM 68.0 °F - 64.9 °F 90% 30.01 in 4.0 mi South 5.8 mph - N/A   Clear
5:55 AM 68.0 °F - 64.8 °F 89% 30.02 in 3.0 mi South 5.8 mph - N/A   Clear
6:15 AM 68.2 °F - 65.3 °F 90% 30.02 in 4.0 mi South 5.8 mph - N/A   Clear
6:35 AM 68.4 °F - 65.3 °F 90% 30.02 in 4.0 mi South 4.6 mph - N/A   Clear
6:55 AM 68.9 °F - 65.7 °F 89% 30.03 in 4.0 mi South 8.1 mph - N/A   Clear
7:15 AM 69.3 °F - 66.2 °F 90% 30.02 in 5.0 mi South 8.1 mph - N/A   Clear
7:35 AM 70.7 °F - 67.5 °F 89% 30.03 in 7.0 mi South 8.1 mph - N/A   Scattered Clouds
7:55 AM 71.1 °F - 67.5 °F 88% 30.03 in 7.0 mi South 9.2 mph - N/A   Scattered Clouds
8:15 AM 71.8 °F - 68.0 °F 88% 30.03 in 10.0 mi SSW 6.9 mph - N/A   Scattered Clouds
8:35 AM 73.0 °F - 68.5 °F 86% 30.03 in 10.0 mi SSW 5.8 mph - N/A   Scattered Clouds
8:55 AM 73.8 °F - 68.9 °F 85% 30.02 in 10.0 mi SSW 6.9 mph - N/A   Scattered Clouds
9:15 AM 74.5 °F - 69.1 °F 83% 30.02 in 10.0 mi SSW 5.8 mph - N/A   Clear
9:35 AM 76.1 °F - 69.8 °F 81% 30.02 in 10.0 mi SSW 6.9 mph - N/A   Clear
9:55 AM 77.4 °F - 70.7 °F 80% 30.02 in 10.0 mi SSW 6.9 mph - N/A   Clear
10:15 AM 78.8 °F - 71.2 °F 78% 30.02 in 10.0 mi SSW 6.9 mph - N/A   Clear
10:35 AM 79.7 °F - 72.3 °F 78% 30.02 in 10.0 mi South 8.1 mph - N/A   Clear
10:55 AM 79.9 °F - 72.3 °F 78% 30.03 in 10.0 mi South 5.8 mph - N/A   Clear
11:15 AM 81.0 °F 86.0 °F 73.4 °F 78% 30.02 in 10.0 mi South 5.8 mph - N/A   Clear
11:35 AM 81.7 °F 87.3 °F 73.9 °F 77% 30.02 in 10.0 mi South 8.1 mph - N/A   Clear
11:55 AM 82.4 °F 88.7 °F 74.1 °F 76% 30.02 in 10.0 mi South 8.1 mph - N/A   Clear
12:15 PM 82.8 °F 89.5 °F 74.5 °F 76% 30.02 in 10.0 mi South 9.2 mph - N/A   Clear
12:35 PM 83.8 °F 92.1 °F 75.6 °F 76% 30.01 in 10.0 mi South 9.2 mph - N/A   Clear
12:55 PM 84.0 °F 92.2 °F 75.2 °F 75% 30.01 in 10.0 mi South 10.4 mph - N/A   Clear
1:15 PM 84.7 °F 93.6 °F 75.7 °F 74% 30.01 in 10.0 mi South 9.2 mph - N/A   Clear
1:35 PM 85.1 °F 94.1 °F 75.7 °F 73% 30.01 in 10.0 mi South 10.4 mph - N/A   Clear
1:55 PM 85.8 °F 95.1 °F 75.4 °F 71% 30.01 in 10.0 mi South 8.1 mph 17.3 mph N/A   Clear
2:15 PM 86.0 °F 94.6 °F 74.8 °F 69% 30.00 in 10.0 mi South 9.2 mph - N/A   Clear
2:35 PM 86.4 °F 95.5 °F 75.2 °F 69% 30.00 in 10.0 mi South 12.7 mph - N/A   Clear
2:55 PM 87.3 °F 96.3 °F 74.5 °F 66% 29.99 in 10.0 mi South 10.4 mph - N/A   Clear
3:15 PM 86.0 °F 92.6 °F 72.5 °F 64% 29.99 in 10.0 mi SSW 9.2 mph - N/A   Clear
3:35 PM 85.3 °F 91.1 °F 71.8 °F 64% 29.99 in 10.0 mi South 9.2 mph - N/A   Clear
3:55 PM 87.1 °F 93.6 °F 72.0 °F 61% 29.98 in 10.0 mi SSW 9.2 mph - N/A   Clear
4:15 PM 87.3 °F 94.9 °F 73.2 °F 63% 29.98 in 10.0 mi South 10.4 mph - N/A   Clear
4:35 PM 87.6 °F 93.5 °F 71.2 °F 58% 29.98 in 10.0 mi SW 10.4 mph - N/A   Clear
4:55 PM 87.8 °F 93.0 °F 70.3 °F 56% 29.98 in 10.0 mi SSW 11.5 mph - N/A   Clear
5:15 PM 86.4 °F 90.7 °F 69.3 °F 57% 29.98 in 10.0 mi SW 11.5 mph - N/A   Clear
5:35 PM 87.3 °F 92.4 °F 70.3 °F 57% 29.98 in 10.0 mi SSW 9.2 mph - N/A   Clear
5:55 PM 86.9 °F 90.6 °F 68.2 °F 54% 29.98 in 10.0 mi SW 10.4 mph - N/A   Clear
6:15 PM 84.9 °F 87.1 °F 66.2 °F 53% 29.98 in 10.0 mi SW 5.8 mph - N/A   Clear
6:35 PM 83.8 °F 87.8 °F 69.4 °F 62% 29.98 in 10.0 mi SSW 6.9 mph - N/A   Clear
6:55 PM 84.2 °F 88.7 °F 70.5 °F 63% 29.98 in 10.0 mi SSW 6.9 mph - N/A   Clear
7:15 PM 82.6 °F 87.6 °F 72.0 °F 70% 29.98 in 10.0 mi South 6.9 mph - N/A   Clear
7:35 PM 81.5 °F 86.3 °F 72.5 °F 74% 29.98 in 10.0 mi South 5.8 mph - N/A   Clear
7:55 PM 79.7 °F - 72.5 °F 79% 29.98 in 10.0 mi South 5.8 mph - N/A   Clear
8:15 PM 78.6 °F - 71.8 °F 79% 29.98 in 10.0 mi South 5.8 mph - N/A   Clear
8:35 PM 77.5 °F - 72.0 °F 83% 29.98 in 10.0 mi South 5.8 mph - N/A   Clear
8:55 PM 77.0 °F - 71.6 °F 83% 29.98 in 10.0 mi South 5.8 mph - N/A   Clear
9:15 PM 76.5 °F - 71.6 °F 85% 29.99 in 5.0 mi South 4.6 mph - N/A   Haze
9:35 PM 76.3 °F - 71.6 °F 85% 29.99 in 10.0 mi South 5.8 mph - N/A   Clear
9:55 PM 77.0 °F - 72.0 °F 84% 30.00 in 10.0 mi South 5.8 mph - N/A   Clear
10:15 PM 76.6 °F - 71.8 °F 85% 30.00 in 10.0 mi South 4.6 mph - N/A   Clear
10:35 PM 76.3 °F - 71.6 °F 85% 30.00 in 10.0 mi SSE 5.8 mph - N/A   Clear
10:55 PM 76.6 °F - 71.6 °F 84% 30.00 in 10.0 mi SSE 6.9 mph - N/A   Clear
11:15 PM 75.7 °F - 71.1 °F 85% 30.00 in 10.0 mi South 6.9 mph - N/A   Clear
11:35 PM 74.3 °F - 70.3 °F 87% 30.01 in 10.0 mi South 5.8 mph - N/A   Clear
11:55 PM 74.5 °F - 70.5 °F 87% 30.01 in 10.0 mi South 5.8 mph - N/A   Scattered Clouds